Home > Weather > Pomona > Past weeks

Flag for USA Past Weather in Pomona, California, USA — Yesterday and Last 2 Weeks

Now
90 °F

Partly sunny.


Feels Like: 86 °F
Forecast: 68 / 98 °F
Wind: 17 mph from West

Location: Chino Airport

Current Time: Jul 25, 2016 at 7:49:25 PM

Latest Report: Jul 25, 2016 at 6:53 PM


Visibility: 10 mi

Pressure: 29.85 "Hg

Humidity: 20%

Dew Point: 44 °F

Location of PomonaLocation

Past Weather in Pomona — Graph

°F

Pomona Temperature Yesterday

Maximum temperature yesterday: 98 °F (at 2:53 PM)
Minimum temperature yesterday: 68 °F (at 5:53 AM)
Average temperature yesterday: 83 °F

High & Low Weather Summary for the Past Weeks

 TemperatureHumidityPressure
High109 °F (Jul 22, 2:53 PM)90% (Jul 14, 4:53 AM)30.03 "Hg (Jul 14, 4:53 AM)
Low61 °F (Jul 11, 4:53 AM)8% (Jul 21, 12:53 PM)29.76 "Hg (Jul 23, 1:53 PM)
Average79 °F50%29.91 "Hg
* Reported Jul 10 6:53 PM — Jul 25 6:53 PM, Pomona, Weather by CustomWeather, © 2016

Note: Actual official high and low records may vary slightly from our data, if they occured in-between our weather recording intervals... More about our weather records

Advertising

Pomona Weather History for the Previous 24 Hours

Scroll right to see more
 ConditionsComfort  
Time TempWeatherWind HumidityBarometerVisibility
6:53 PM
Mon, Jul 25
90 °FPartly sunny.17 mph20%29.85 "Hg10 mi
5:53 PM93 °FPartly sunny.18 mph24%29.83 "Hg10 mi
4:53 PM94 °FPartly sunny.20 mph25%29.83 "Hg10 mi
3:53 PM101 °FScattered clouds.16 mph21%29.84 "Hg10 mi
2:53 PM102 °FScattered clouds.9 mph17%29.86 "Hg10 mi
1:53 PM101 °FScattered clouds.6 mph15%29.88 "Hg10 mi
12:53 PM97 °FScattered clouds.8 mph20%29.92 "Hg10 mi
11:53 AM97 °FScattered clouds.6 mph14%29.95 "Hg10 mi
10:53 AM92 °FScattered clouds.3 mph25%29.96 "Hg10 mi
9:53 AM86 °FScattered clouds.No wind37%29.98 "Hg10 mi
8:53 AM81 °FScattered clouds.No wind49%29.98 "Hg10 mi
7:53 AM76 °FScattered clouds.No wind64%29.98 "Hg10 mi
6:53 AM70 °FPassing clouds.No wind81%29.95 "Hg10 mi
5:53 AM67 °FFog.No wind87%29.93 "Hg4 mi
4:53 AM68 °FFog.No wind87%29.92 "Hg6 mi
3:53 AM70 °FClear.No wind81%29.92 "Hg7 mi
2:53 AM70 °FClear.5 mph81%29.92 "Hg7 mi
1:53 AM71 °FClear.3 mph76%29.93 "Hg7 mi
12:53 AM72 °FClear.6 mph76%29.92 "Hg6 mi
11:53 PM
Sun, Jul 24
74 °FClear.7 mph69%29.91 "Hg8 mi
10:53 PM76 °FClear.9 mph60%29.91 "Hg9 mi
9:53 PM78 °FClear.9 mph52%29.90 "Hg9 mi
8:53 PM81 °FSunny.10 mph42%29.88 "Hg10 mi
7:53 PM85 °FScattered clouds.13 mph31%29.86 "Hg10 mi
Weather by CustomWeather, © 2016

See weather overviewHow to use our weather pages